{"data":{"norad_id":62142,"intl_designator":"2024-224D","name":"STARLINK-32454","alt_names":[],"object_type":"PAYLOAD","status":"ACTIVE","operator":null,"country":"US","launch_date":"2024-11-30","launch_site_code":"AFETR","launch_vehicle":null,"mission":null,"orbit_class":"UNKNOWN","rcs_meters":null,"size_class":null,"mass_kg":null,"dimensions":null,"purposes":["comms"],"wikipedia_slug":null,"has_3d_model":false,"image_url":null,"decayed_at":null,"tle_current":{"epoch":"2026-09-21T00:05:01.593024Z","epoch_age_seconds":138063,"freshness":"FRESH","line1":"1 62142U 24224D   26264.00349066  .00018568  00000+0  68223-3 0  9998","line2":"2 62142  43.0006 142.6048 0001620 267.6898  92.3768 15.27596232102268","mean_motion":15.27596232,"eccentricity":0.000162,"inclination_deg":43.0006,"raan_deg":142.6048,"arg_perigee_deg":267.6898,"mean_anomaly_deg":92.3768,"bstar":0.00068223,"rev_number":10226,"period_min":94.26574704984,"perigee_km":481.8889877489,"apogee_km":484.11199629632,"semimajor_km":6861.1374920226,"source":"CELESTRAK","updated_at":"2026-09-22T09:00:49.529542Z"}}}